Location: State Camp
(41.2367°N, 77.7828°W)
Time: 17:56:55
(UTC-05:00)

ADEOS Rocket - Visible Passes

Search period start: 26 February 2015 00:00
Search period end: 08 March 2015 00:00
Orbit: 860 x 1306 km, 98.7° (Epoch: 26 February)

Date Brightness Start Highest point End Pass type
(mag) Time Alt. Az. Time Alt. Az. Time Alt. Az.
26 Feb 4.1 18:34:51 10° ESE 18:40:57 34° ENE 18:47:37 10° N visible
26 Feb 4.2 20:19:23 10° S 20:26:08 51° W 20:33:28 10° NNW visible
27 Feb 3.4 19:30:11 10° SSE 19:37:11 78° ENE 19:44:51 10° N visible
27 Feb 5.6 21:18:30 10° SW 21:23:39 20° W 21:28:44 10° NW visible
28 Feb 4.0 18:42:16 10° SE 18:48:41 38° ENE 18:55:39 10° N visible
28 Feb 4.4 20:27:20 10° SSW 20:34:02 45° W 20:41:16 10° NNW visible
01 Mar 3.4 19:37:54 10° SSE 19:45:00 88° ENE 19:52:45 10° NNW visible
01 Mar 5.8 21:26:57 10° SW 21:31:40 17° W 21:36:11 10° NW visible
02 Mar 3.8 18:49:45 10° SE 18:56:26 44° ENE 19:03:39 10° N visible
02 Mar 4.7 20:35:20 10° SSW 20:41:58 39° W 20:49:01 10° NNW visible
03 Mar 3.5 19:45:39 10° SSE 19:52:51 83° WSW 20:00:38 10° NNW visible
03 Mar 5.9 21:35:35 10° WSW 21:39:43 15° W 21:43:28 10° NW visible
04 Mar 3.7 18:57:17 10° SE 19:04:12 50° ENE 19:11:38 10° N visible
04 Mar 4.9 20:43:24 10° SSW 20:49:55 35° W 20:56:44 10° NNW visible
05 Mar 3.7 19:53:27 10° S 20:00:43 73° WSW 20:08:30 10° NNW visible
05 Mar 6.0 21:44:30 10° WSW 21:47:46 13° W 21:50:31 10° WNW visible
06 Mar 3.6 19:04:52 10° SE 19:12:00 57° ENE 19:19:35 10° N visible
06 Mar 5.1 20:51:31 10° SSW 20:57:54 30° W 21:04:25 10° NNW visible
07 Mar 3.9 20:01:18 10° S 20:08:36 64° W 20:16:20 10° NNW visible
07 Mar 6.2 21:54:12 10° W 21:55:51 10° W 21:56:48 10° WNW visible
